Location: G�migny
(47.9646°N, 1.6950°E)
Time: 20:44:27
(UTC+00:00)

Cosmos 1833 Rocket - Pass Details

Date: 23 October 2019
Orbit: 833 x 839 km, 71.0° (Epoch: 21 November)

Event Time Altitude Azimuth Distance (km) Brightness Sun altitude
Rises 18:35:56 0° 325° (NW) 3,393 6.4 -18.3°
Reaches altitude 10° 18:38:35 10° 316° (NW) 2,455 5.8 -18.7°
Maximum altitude 18:43:32 33° 255° (WSW) 1,373 4.4 -19.5°
Drops below altitude 10° 18:48:30 10° 192° (SSW) 2,443 5.2 -20.4°
Sets 18:51:08 0° 183° (S) 3,374 5.8 -20.8°
